Regional Weather Roundup
Issued by NWS

Home | Current Version | Previous Version | Text Only | Print | Product List | Glossary Off
Versions: 1 2 3 4 5 6 7 8 9 10 11 12 13 14 15 16 17 18 19 20 21 22 23 24 25 26 27 28 29 30 31 32 33 34 35 36 37 38 39 40 41 42 43 44 45 46 47 48 49 50

354
ASUS43 KOAX 060502
RWRNE

WEATHER ROUNDUP FOR NEBRASKA
NATIONAL WEATHER SERVICE OMAHA NE
1200 AM CDT FRI MAY 06 2016

NOTES: SATELLITE DATA IS BEING USED TO AUGMENT CLOUD COVER ABOVE
       12000 FEET.
       "FAIR" INDICATES FEW OR NO CLOUDS BELOW 12,000 FEET WITH NO
       SIGNIFICANT WEATHER AND/OR OBSTRUCTIONS TO VISIBILITY.

  * THESE STATIONS DO NOT REPORT WEATHER SUCH AS RAIN...SNOW OR FOG.

NEZ001>004-019>022-054>056-060600-
NEBRASKA PANHANDLE

CITY           SKY/WX    TMP DP  RH WIND       PRES   REMARKS
SCOTTSBLUFF    CLOUDY    63  44  50 SE6       29.96S
ALLIANCE       CLOUDY    53  48  83 S10       29.96S
CHADRON        CLOUDY    64  43  46 VRB3      29.90S
SIDNEY         CLOUDY    60  44  55 S14       30.01S
$$

NEZ057>060-069>072-079>082-060600-
SOUTHWEST NEBRASKA

CITY           SKY/WX    TMP DP  RH WIND       PRES   REMARKS
NORTH PLATTE   CLOUDY    63  47  55 SE8       30.00R
IMPERIAL       CLOUDY    63  48  58 S14       30.01S
MCCOOK         CLOUDY    63  47  55 S14       30.01S
$$

NEZ005>010-023>029-035>040-094-060600-
NORTH CENTRAL NEBRASKA

CITY           SKY/WX    TMP DP  RH WIND       PRES   REMARKS
VALENTINE      PTCLDY    68  46  45 S17       29.90S
AINSWORTH      PTCLDY    66  48  52 S16       29.94S
BROKEN BOW     LGT RAIN  63  47  55 S13       29.99F
ORD            CLEAR     58  48  69 S10       29.97F
$$

NEZ041-046>049-061>064-073>077-083>087-060600-
SOUTH CENTRAL NEBRASKA

CITY           SKY/WX    TMP DP  RH WIND       PRES   REMARKS
GRAND ISLAND   CLEAR     62  43  49 S12       30.02F
AURORA         CLEAR     62  42  48 S8        30.02S
HASTINGS       CLEAR     61  42  49 S9        30.03F
KEARNEY *      CLEAR     59  45  58 S8        30.03S
YORK           CLEAR     59  43  55 S7        30.03S
$$

NEZ011>018-030>034-042>045-060600-
NORTHEAST NEBRASKA

CITY           SKY/WX    TMP DP  RH WIND       PRES   REMARKS
NORFOLK        CLEAR     65  41  41 S14       29.98S
ALBION         CLEAR     58  43  58 S5        29.99S
BLAIR          CLEAR     61  43  51 S7        30.00S
COLUMBUS *     CLEAR     61  39  44 S8        30.01F
FREMONT        CLEAR     64  41  42 S10       30.00F
TEKAMAH        CLEAR     54  48  80 S7        29.99S
$$

NEZ050>053-065>068-078-088>093-060600-
SOUTHEAST NEBRASKA

CITY           SKY/WX    TMP DP  RH WIND       PRES   REMARKS
LINCOLN        CLEAR     59  43  55 S5        30.03S
OMAHA EPPLEY   PTCLDY    59  46  62 SE6       30.00S
BEATRICE       CLEAR     60  44  55 S7        30.03S
FALLS CITY     CLEAR     62  40  44 S3        30.03S
$$

NEZ044-045-051>053-067-060600-
OMAHA AREA

CITY           SKY/WX    TMP DP  RH WIND       PRES   REMARKS
OMAHA EPPLEY   PTCLDY    59  46  62 SE6       30.00S
BLAIR          CLEAR     61  43  51 S7        30.00S
FREMONT        CLEAR     64  41  42 S10       30.00F
OFFUTT AFB     CLEAR     51  50  97 VRB3      30.00S
$$




USA.gov is the U.S. government's official web portal to all federal, state and local government web resources and services.